Weather History for Kendall, FL

Change the Weather History Date:

Sunday, November 3, 2013

  Actual Average Record
Temperature  
Mean Temperature 76 °F -  
Max Temperature 84 °F 84 °F 87 °F (1992)
Min Temperature 69 °F 63 °F 55 °F (2012)
Cooling Degree Days 10    
Growing Degree Days 26 (Base 50)    
Moisture  
Dew Point 62 °F    
Average Humidity 64    
Maximum Humidity 78    
Minimum Humidity 49    
Precipitation  
Precipitation 0.00 in - - ()
Sea Level Pressure  
Sea Level Pressure 29.96 in    
Wind  
Wind Speed 14 mph (NNE)    
Max Wind Speed 20 mph    
Max Gust Speed 24 mph    
Visibility 10 miles    
Events      
Averages and records for this station are not official NWS values.
T = Trace of Precipitation, MM = Missing Value Source: NWS Daily Summary

Daily Weather History Graph

Daily Weather History Graph

Search for Another Location

Airport:

Trip Planner

Search our weather history database for the weather conditions in past years. The results will help you decide how hot, cold, wet, or windy it might be!

Date:

Astronomy

Nov. 03, 2013 Rise Set
Actual Time 6:31 AM EST 5:38 PM EST
Civil Twilight 6:07 AM EST 6:02 PM EST
Nautical Twilight 5:40 AM EST 6:29 PM EST
Astronomical Twilight 5:13 AM EST 6:56 PM EST
Moon 6:32 AM EST (11/3) 5:55 PM EST (11/3)
Length of Visible Light 11h 55m
Length of Day
11h 07m
New Moon, 0% of the Moon is Illuminated
Nov 3
New Moon
Nov 10
First Quarter
Nov 17
Full
Nov 25
Last Quarter
Dec 2
New

Hourly Weather History & Observations

Time (EST) Temp. Heat Index Dew Point Humidity Pressure Visibility Wind Dir Wind Speed Gust Speed Precip Events Conditions
12:53 AM 73.0 °F - 64.0 °F 73% 29.92 in 10.0 mi North 15.0 mph 18.4 mph N/A   Clear
1:53 AM 71.1 °F - 61.0 °F 70% 29.92 in 10.0 mi North 13.8 mph - N/A   Clear
1:53 AM 71.1 °F - 62.1 °F 73% 29.91 in 10.0 mi North 13.8 mph - N/A   Overcast
2:53 AM 71.1 °F - 63.0 °F 75% 29.91 in 10.0 mi North 10.4 mph - N/A   Overcast
3:53 AM 70.0 °F - 63.0 °F 78% 29.91 in 10.0 mi North 12.7 mph - N/A   Overcast
4:53 AM 70.0 °F - 62.1 °F 76% 29.91 in 10.0 mi North 11.5 mph - N/A   Overcast
5:53 AM 69.1 °F - 62.1 °F 78% 29.94 in 10.0 mi North 12.7 mph 20.7 mph N/A   Overcast
6:53 AM 70.0 °F - 62.1 °F 76% 29.94 in 10.0 mi North 11.5 mph - N/A   Overcast
7:53 AM 71.1 °F - 60.1 °F 68% 29.96 in 10.0 mi North 10.4 mph - N/A   Scattered Clouds
8:53 AM 75.9 °F - 61.0 °F 60% 29.98 in 10.0 mi North 15.0 mph 21.9 mph N/A   Mostly Cloudy
9:53 AM 78.1 °F - 61.0 °F 56% 30.00 in 10.0 mi NNE 16.1 mph - N/A   Clear
10:53 AM 79.0 °F - 61.0 °F 54% 29.99 in 10.0 mi North 15.0 mph 24.2 mph N/A   Clear
11:53 AM 82.0 °F 83.1 °F 63.0 °F 52% 29.98 in 10.0 mi NNE 17.3 mph - N/A   Clear
12:53 PM 82.0 °F 83.4 °F 64.0 °F 54% 29.95 in 10.0 mi NE 10.4 mph 19.6 mph N/A   Overcast
1:53 PM 82.9 °F 83.7 °F 62.1 °F 49% 29.94 in 10.0 mi NE 12.7 mph - 0.00 in   Overcast
2:53 PM 81.0 °F 81.9 °F 62.1 °F 52% 29.93 in 10.0 mi NE 17.3 mph - N/A   Overcast
3:53 PM 81.0 °F 81.9 °F 62.1 °F 52% 29.93 in 10.0 mi NE 15.0 mph 20.7 mph N/A   Scattered Clouds
4:53 PM 79.0 °F - 62.1 °F 56% 29.94 in 10.0 mi ENE 19.6 mph 24.2 mph N/A   Mostly Cloudy
5:53 PM 78.1 °F - 62.1 °F 58% 29.96 in 10.0 mi NE 13.8 mph - N/A   Mostly Cloudy
6:53 PM 77.0 °F - 60.1 °F 56% 29.98 in 10.0 mi North 16.1 mph - N/A   Overcast
7:53 PM 75.0 °F - 59.0 °F 57% 30.00 in 10.0 mi North 16.1 mph - N/A   Overcast
8:53 PM 73.0 °F - 59.0 °F 61% 30.02 in 10.0 mi North 9.2 mph - N/A   Mostly Cloudy
9:53 PM 70.0 °F - 60.1 °F 71% 30.02 in 10.0 mi North 8.1 mph - N/A   Clear
10:53 PM 69.1 °F - 60.1 °F 73% 30.02 in 10.0 mi North 8.1 mph - N/A   Scattered Clouds